Regional Weather Roundup
Issued by NWS Spokane, WA

Home | Current Version | Previous Version | Text Only | Print | Product List | Glossary On
Versions: 1 2 3 4 5 6 7 8 9 10 11 12 13 14 15 16 17 18 19 20 21 22 23 24 25 26 27 28 29 30 31 32 33 34 35 36 37 38 39 40 41 42 43 44 45 46 47 48 49 50
000
NZUS01 KOTX 181510
RWROTX
EASTERN WASHINGTON/NORTHERN IDAHO ROUNDUP
NATIONAL WEATHER SERVICE, SPOKANE WA
700 AM PST THU DEC 18 2014

Note: "fair" indicated few or no clouds below 12,000 feet with no
significant weather and/or obstructions to visibility.

...NORTHEAST WASHINGTON AND NORTHERN IDAHO PANHANDLE...

CITY           SKY/WX    TMP DP  RH WIND       PRES   REMARKS
SPOKANE INTL   FOG       34  34 100 SE5       29.97S VSB 1   WCI  30
SPOKANE DOWNTO CLOUDY    37  35  92 CALM      29.99S
COEUR D ALENE  CLOUDY    36  32  87 CALM      29.97S
DEER PARK      CLOUDY    34  33  96 CALM      29.98S FOG
SANDPOINT      CLOUDY    32  32 100 CALM      29.99S FOG

...SOUTHEAST WASHINGTON AND SOUTHERN IDAHO PANHANDLE...

CITY           SKY/WX    TMP DP  RH WIND       PRES   REMARKS
WALLA WALLA    PTCLDY    36  33  89 CALM      30.00R
PULLMAN/MOSCOW CLOUDY    37  35  92 SE8       30.00S
LEWISTON       CLOUDY    38  36  92 E3        30.01F
LOWELL           N/A     35  33  92 CALM      30.09R

...COLUMBIA BASIN...

CITY           SKY/WX    TMP DP  RH WIND       PRES   REMARKS
EPHRATA        FOG       36  36 100 CALM      29.99S VSB 1/4
MOSES LAKE     CLOUDY    37  35  92 S7        30.00S FOG
TRI CITIES     CLOUDY    31  31 100 N3        30.04S FOG
HERMISTON      FOG       31  30  96 S3        30.02S VSB<1/4
PENDLETON      CLEAR     32  31  96 SE6       29.98F FOG     WCI  26

...EAST SLOPES CASCADES...

CITY           SKY/WX    TMP DP  RH WIND       PRES   REMARKS
THE DALLES     CLOUDY    38  36  92 SE3       30.04R
YAKIMA         CLOUDY    39  36  89 CALM      30.01R
ELLENSBURG     FOG       36  33  89 CALM      29.98R VSB 1/4
WENATCHEE      CLOUDY    37  34  89 CALM      29.99R FOG
OMAK           FOG       34  33  96 SE3       29.99R VSB 1/2

...SOUTHERN BRITISH COLUMBIA...

CITY           SKY/WX    TMP DP  RH WIND       PRES   REMARKS

...WESTERN MONTANA...

CITY           SKY/WX    TMP DP  RH WIND       PRES   REMARKS
MISSOULA       CLOUDY    28  25  88 CALM      30.02R

...NEIGHBORING CITIES...

CITY           SKY/WX    TMP DP  RH WIND       PRES   REMARKS
SEATTLE        CLOUDY    45  41  86 E5        29.93F



USA.gov is the U.S. government's official web portal to all federal, state and local government web resources and services.